User: anonymous   Login
Location: Unspecified
(0.0000°N, 0.0000°E)
Time: 22:23:56
(UTC+00:00)
Language:

SPADEX A - Orbit

View from above orbital plane
View from above orbital plane
View from above satellite
View from above satellite

Ground track
Ground track

The orbit is defined by the following mean orbital elements,

1 62459U          26145.55493612 +.00000000 +00000-0 +61758-3 0 00002
2 62459  54.9928  94.3336 0006415  98.4478 261.7290 15.65973301    06
Epoch (UTC): 25 May 2026 13:19:06
Eccentricity: 0.0006415
inclination: 54.9928°
perigee height: 366 km
apogee height: 375 km
right ascension of ascending node: 94.3336°
argument of perigee: 98.4478°
revolutions per day: 15.65973301
mean anomaly at epoch: 261.7290°

The dashed part of the orbit path shows where the satellite is in the earth's shadow,  

DLR